Погода в Кентау

Казахстан     43°31′05″N   68°30′16″E
темп.,
°C
ветер,
м/с
пор.,
м/с
влажн.,
%
обл.,
%
осадки,
мм/ч
давл.,
гПа
погр.,
м
2 марта, вт
вт200:00+4в33700 0.0 101829
03:00+3в33720 0.0 101726
06:00+1ю11780 0.0 101922
09:00+2зюз22720 0.0 102134
12:00+6зюз34510 0.0 1023482
15:00+7з564961 0.0 1023899
18:00+5зсз466480 0.0 1024650
21:00+2з2379100 0.0 1025106
3 марта, ср
ср300:00+2зсз1276100 0.0 102699
03:00+1сз1174100 0.0 102637
06:00+1юв2271100 0.0 102654
09:00+1вюв247999 0.0 1026230
12:00+3юв3262100 0.0 1026559
15:00+5ю2250100 0.0 1024764
18:00+5ююз1147100 0.0 1023745
21:00+3ю126698 0.0 102334
4 марта, чт
чт400:00+1юв119285 0.0 102222
03:00+1св228617 0.0 102122
06:00+1всв22818 0.0 102122
09:00+3всв237516 0.0 102033
12:00+7ююв345952 0.0 1019444
15:00+10ю5862100 0.0 10151176
18:00+12юз71347100 0.1 1013978
21:00+4зсз101592100 1.3 1015884
5 марта, пт
пт500:00+2зсз91283100 2.1 1022937
03:00+1з7108898 0.1 1027772
06:00−1з468797 0.7 1031560
09:000зюз2482100 0.3 1033498
12:00+2зюз346277 0.3 10331037
15:00+4с114825 0.0 1030995
18:00+5всв233912 0.0 1027738
21:00+3св34540 0.0 102667
6 марта, сб
сб600:00+2св34550 0.0 102448
03:00+2св344492 0.0 102135
06:00+3ссв343196 0.0 101928
09:00+4св3444100 0.0 101749
12:00+10ссв3434100 0.0 1015205
15:00+12св3332100 0.0 1014381
18:00+10з2340100 0.0 1015268
21:00+6в3452100 0.0 1015118